Regional Weather Roundup
Issued by NWS New Orleans/Baton Rouge, LA

Home | Current Version | Previous Version | Text Only | Print | Product List | Glossary On
Versions: 1 2 3 4 5 6 7 8 9 10 11 12 13 14 15 16 17 18 19 20 21 22 23 24 25 26 27 28 29 30 31 32 33 34 35 36 37 38 39 40 41 42 43 44 45 46 47 48 49 50
000
ASUS44 KLIX 220310
RWRLIX
NEW ORLEANS REGIONAL WEATHER ROUNDUP
NATIONAL WEATHER SERVICE NEW ORLEANS LA
1000 PM CDT TUE OCT 21 2014

NOTE: "FAIR" INDICATES FEW OR NO CLOUDS BELOW 12,000 FEET WITH NO
      SIGNIFICANT WEATHER AND/OR OBSTRUCTIONS TO VISIBILITY.
      SKY/WX - SKY CONDITION AND SIGNIFICANT WEATHER.
      TMP - AIR TEMPERATURE.     DP    - DEWPOINT TEMPERATURE.
      RH  - RELATIVE HUMIDITY.   PRES  - PRESSURE.
      HI  - HEAT INDEX.          WCI   - WIND CHILL INDEX.

*  THESE STATIONS ARE NOT NWS OR FAA STATIONS AND ARE NOT UNDER
   NWS QUALITY CONTROL.

LAZ038-040-048-061>063-065>067-069-220400-
SOUTHEAST LOUISIANA

CITY           SKY/WX    TMP DP  RH WIND       PRES   REMARKS
N.O. AUDUBON     N/A     67  61  81 MISG        N/A
N.O. INTL ARPT PTCLDY    67  57  70 S5        30.03R
N.O. LAKEFRONT CLEAR     73  62  68 N5        30.03R
N.O. DOWNTOWN*   N/A     73  54  49 S3        30.04R
SLIDELL        CLEAR     60  57  89 CALM      30.03R
BATON ROUGE    CLEAR     63  58  83 CALM      30.04R
BOOTHVILLE     CLEAR     67  62  84 N3        30.02R
BELLE CHASSE   CLEAR     60  56  86 CALM      30.03R
BOGALUSA*        N/A     59  55  87 CALM      30.06R
NEW ROADS*       N/A     64  60  87 CALM      30.05R
GONZALES*        N/A     62  62 100 N3        30.03R
HAMMOND*       CLEAR     66  55  68 N5        30.05S
HOUMA*         CLEAR     60  57  90 CALM      30.03R
PORT FOURCHON* CLEAR     72  59  64 E5        30.05R

$$

MSZ070-080>082-220400-
SOUTHERN MISSISSIPPI

CITY           SKY/WX    TMP DP  RH WIND       PRES   REMARKS
MCCOMB         CLEAR     61  56  83 CALM      30.06R
GULFPORT       CLEAR     62  58  86 CALM      30.02R
BILOXI         CLEAR     64  61  88 NE5       30.02R
PASCAGOULA     CLEAR     54  54 100 CALM      30.03R

$$

COASTAL OBSERVATIONS
LAKE AND NEARSHORE STATIONS

STATION/POSITION TIME  TEMP    WIND        PRES    WAVE
                       AIR SEA DIR/SP/G            HT/PER
                 (UTC) (F)     (DEG/KT/KT) (MB)    (FT/S)
PASCAGOULA       0300   65     340/  6/  6 1016.0
WAVELAND YACHT   0300   68     340/  3/  4 1015.8
GRAND ISLE       0300   72 76   80/  4/  6 1017.1
SOUTHWEST PASS   0300   72 83              1016.5
NEW CANAL        0300   70 72  190/  3/  5 1017.2
SHELL BEACH      0300   69 70   CALM  /  3 1016.7

OFFSHORE STATIONS

STATION/POSITION TIME  TEMP    WIND        PRES    WAVE
                       AIR SEA DIR/SP/G            HT/PER
                 (UTC) (F)     (DEG/KT/KT) (MB)    (FT/S)
64 S DAUPHIN ISL 0239   75 79   50/ 10/ 12 1017.0    1/ 4

$$




USA.gov is the U.S. government's official web portal to all federal, state and local government web resources and services.